SDO

Last updated on Sun Oct 19 2025 00:02:48 GMT+0000 (Coordinated Universal Time)

1 36395U 10005A 25290.96269080 -.00000046 00000+0 00000+0 0 9999 2 36395 34.1420 90.0358 0001559 120.4658 61.1959 1.00273126 57637
UTC large
Height (km)
Speed (km/s)
/
Latitude / Longitude
Inclination (degrees)
Orbital Period (minutes)
Azimuth
Elevation
Range (km)
Doppler Factor

Next 0 passes for location: London (51.5072 / 0.1276)

Sorry there are no passes over London.